Year,Month,Day,Hour,Minute,Value (Times are PST for temperature in C)
2017,07,13,14,20,20.00
2017,07,13,14,21,20.00
2017,07,13,14,22,20.00
2017,07,13,14,23,19.90
2017,07,13,14,25,19.90
2017,07,13,14,26,19.90
2017,07,13,14,27,19.90
2017,07,13,14,28,19.90
2017,07,13,14,29,19.90
2017,07,13,14,30,19.90
2017,07,13,14,31,20.00
2017,07,13,14,32,20.10
2017,07,13,14,33,20.10
2017,07,13,14,34,20.20
2017,07,13,14,35,20.20
2017,07,13,14,36,20.10
2017,07,13,14,37,20.00
2017,07,13,14,38,19.90
2017,07,13,14,39,19.80
2017,07,13,14,40,19.80
2017,07,13,14,41,19.80
2017,07,13,14,42,19.80
2017,07,13,14,43,19.70
2017,07,13,14,44,19.70
2017,07,13,14,45,19.70
2017,07,13,14,46,19.60
2017,07,13,14,47,19.60
2017,07,13,14,48,19.50
2017,07,13,14,49,19.50
2017,07,13,14,50,19.40
2017,07,13,14,51,19.40
2017,07,13,14,52,19.30
2017,07,13,14,53,19.30
2017,07,13,14,54,19.20
2017,07,13,14,55,19.20
2017,07,13,14,56,19.20
2017,07,13,14,57,19.20
2017,07,13,14,58,19.10
2017,07,13,14,59,19.10
2017,07,13,15,00,19.10
2017,07,13,15,01,19.10
2017,07,13,15,02,19.20
2017,07,13,15,03,19.30
2017,07,13,15,04,19.30
2017,07,13,15,05,19.30
2017,07,13,15,06,19.40
2017,07,13,15,07,19.50
2017,07,13,15,08,19.60
2017,07,13,15,09,19.60
2017,07,13,15,10,19.70
2017,07,13,15,11,19.70
2017,07,13,15,12,19.70
2017,07,13,15,13,19.80
2017,07,13,15,14,19.80
2017,07,13,15,15,19.90
2017,07,13,15,16,19.90
2017,07,13,15,17,19.90
2017,07,13,15,18,19.90
2017,07,13,15,19,19.90
2017,07,13,15,20,19.90
2017,07,13,15,21,19.90
2017,07,13,15,22,19.90
2017,07,13,15,23,19.90
2017,07,13,15,24,19.80
2017,07,13,15,25,19.80
2017,07,13,15,26,19.80
2017,07,13,15,27,19.80
2017,07,13,15,28,19.80
2017,07,13,15,29,19.80
2017,07,13,15,30,19.80
2017,07,13,15,31,19.80
2017,07,13,15,32,19.80
2017,07,13,15,33,19.80
2017,07,13,15,34,19.80
2017,07,13,15,35,19.80
2017,07,13,15,36,19.80
2017,07,13,15,37,19.80
2017,07,13,15,38,19.90
2017,07,13,15,39,20.00
2017,07,13,15,40,20.00
2017,07,13,15,41,19.90
2017,07,13,15,42,19.80
2017,07,13,15,43,19.80
2017,07,13,15,44,19.80
2017,07,13,15,45,19.70
2017,07,13,15,46,19.70
2017,07,13,15,47,19.70
2017,07,13,15,48,19.80
2017,07,13,15,49,19.80
2017,07,13,15,50,19.80
2017,07,13,15,51,19.80
2017,07,13,15,52,19.80
2017,07,13,15,53,19.70
2017,07,13,15,54,19.70
2017,07,13,15,55,19.70
2017,07,13,15,56,19.70
2017,07,13,15,57,19.80
2017,07,13,15,58,19.70
2017,07,13,15,59,19.80
2017,07,13,16,00,19.80
2017,07,13,16,01,19.80
2017,07,13,16,02,19.70
2017,07,13,16,03,19.60
2017,07,13,16,04,19.60
2017,07,13,16,05,19.60
2017,07,13,16,06,19.60
2017,07,13,16,07,19.60
2017,07,13,16,08,19.70
2017,07,13,16,09,19.70
2017,07,13,16,10,19.70
2017,07,13,16,11,19.70
2017,07,13,16,12,19.80
2017,07,13,16,13,19.80
2017,07,13,16,14,19.80
2017,07,13,16,15,19.80
2017,07,13,16,16,19.70
2017,07,13,16,17,19.70
2017,07,13,16,18,19.70
2017,07,13,16,19,19.70
2017,07,13,16,20,19.70
2017,07,13,16,21,19.70
2017,07,13,16,22,19.70
2017,07,13,16,23,19.80
2017,07,13,16,24,19.80
2017,07,13,16,25,19.70
2017,07,13,16,26,19.80
2017,07,13,16,27,19.80
2017,07,13,16,28,19.80
2017,07,13,16,29,19.80
2017,07,13,16,30,19.80
2017,07,13,16,31,19.80
2017,07,13,16,32,19.80
2017,07,13,16,33,19.80
2017,07,13,16,34,19.80
2017,07,13,16,35,19.80
2017,07,13,16,36,19.90
2017,07,13,16,37,19.90
2017,07,13,16,38,19.90
2017,07,13,16,39,19.90
2017,07,13,16,40,19.90
2017,07,13,16,41,19.90
2017,07,13,16,42,19.90
2017,07,13,16,43,19.90
2017,07,13,16,44,19.80
2017,07,13,16,45,19.80
2017,07,13,16,46,19.90
2017,07,13,16,47,19.90
2017,07,13,16,48,19.80
2017,07,13,16,49,19.90
2017,07,13,16,50,19.90
2017,07,13,16,51,19.90
2017,07,13,16,52,20.00
2017,07,13,16,53,20.00
2017,07,13,16,54,20.00
2017,07,13,16,55,20.00
2017,07,13,16,56,19.90
2017,07,13,16,57,19.80
2017,07,13,16,58,19.80
2017,07,13,16,59,19.70
2017,07,13,17,00,19.70
2017,07,13,17,01,19.60
2017,07,13,17,02,19.60
2017,07,13,17,03,19.50
2017,07,13,17,04,19.50
2017,07,13,17,05,19.50
2017,07,13,17,06,19.40
2017,07,13,17,07,19.40
2017,07,13,17,08,19.50
2017,07,13,17,09,19.50
2017,07,13,17,10,19.50
2017,07,13,17,11,19.50
2017,07,13,17,12,19.50
2017,07,13,17,13,19.50
2017,07,13,17,14,19.50
2017,07,13,17,15,19.50
2017,07,13,17,16,19.50
2017,07,13,17,17,19.50
2017,07,13,17,18,19.40
2017,07,13,17,19,19.40
2017,07,13,17,20,19.40
2017,07,13,17,21,19.40
2017,07,13,17,22,19.30
2017,07,13,17,23,19.30
2017,07,13,17,24,19.30
2017,07,13,17,25,19.30
2017,07,13,17,26,19.30
2017,07,13,17,27,19.30
2017,07,13,17,28,19.40
2017,07,13,17,29,19.40
2017,07,13,17,30,19.40
2017,07,13,17,31,19.50
2017,07,13,17,32,19.50
2017,07,13,17,33,19.50
2017,07,13,17,34,19.60
2017,07,13,17,35,19.60
2017,07,13,17,36,19.60
2017,07,13,17,37,19.60
2017,07,13,17,38,19.60
2017,07,13,17,39,19.60
2017,07,13,17,40,19.70
2017,07,13,17,41,19.70
2017,07,13,17,42,19.70
2017,07,13,17,43,19.70
2017,07,13,17,44,19.70
2017,07,13,17,45,19.70
2017,07,13,17,46,19.80
2017,07,13,17,47,19.80
2017,07,13,17,48,19.90
2017,07,13,17,49,20.00
2017,07,13,17,50,20.10
2017,07,13,17,51,20.10
2017,07,13,17,52,20.10
2017,07,13,17,53,20.10
2017,07,13,17,54,20.10
2017,07,13,17,55,20.10
2017,07,13,17,56,20.10
2017,07,13,17,57,20.00
2017,07,13,17,58,20.00
2017,07,13,17,59,20.00
2017,07,13,18,00,20.00
2017,07,13,18,01,20.00
2017,07,13,18,02,20.00
2017,07,13,18,03,20.10
2017,07,13,18,04,20.10
2017,07,13,18,05,20.10
2017,07,13,18,06,20.20
2017,07,13,18,07,20.20
2017,07,13,18,08,20.30
2017,07,13,18,09,20.30
2017,07,13,18,10,20.30
2017,07,13,18,11,20.30
2017,07,13,18,12,20.30
2017,07,13,18,13,20.30
2017,07,13,18,14,20.30
2017,07,13,18,15,20.30
2017,07,13,18,16,20.20
2017,07,13,18,17,20.10
2017,07,13,18,18,20.10
2017,07,13,18,19,20.10
2017,07,13,18,20,20.10
2017,07,13,18,21,20.10
2017,07,13,18,22,20.10
2017,07,13,18,23,20.10
2017,07,13,18,24,20.10
2017,07,13,18,25,20.10
2017,07,13,18,26,20.10
2017,07,13,18,27,20.00
2017,07,13,18,28,20.00
2017,07,13,18,29,20.00
2017,07,13,18,30,20.00
2017,07,13,18,31,20.00
2017,07,13,18,32,20.00
2017,07,13,18,33,20.00
2017,07,13,18,34,20.00
2017,07,13,18,35,20.00
2017,07,13,18,36,20.00
2017,07,13,18,37,19.90
2017,07,13,18,38,19.90
2017,07,13,18,39,20.00
2017,07,13,18,40,19.90
2017,07,13,18,41,19.90
2017,07,13,18,42,19.90
2017,07,13,18,43,19.90
2017,07,13,18,44,19.90
2017,07,13,18,45,19.90
2017,07,13,18,46,19.80
2017,07,13,18,47,19.70
2017,07,13,18,48,19.70
2017,07,13,18,49,19.70
2017,07,13,18,50,19.60
2017,07,13,18,51,19.60
2017,07,13,18,52,19.60
2017,07,13,18,53,19.70
2017,07,13,18,54,19.70
2017,07,13,18,55,19.70
2017,07,13,18,56,19.70
2017,07,13,18,57,19.70
2017,07,13,18,58,19.70
2017,07,13,18,59,19.70
2017,07,13,19,00,19.70
2017,07,13,19,01,19.70
2017,07,13,19,02,19.70
2017,07,13,19,03,19.60
2017,07,13,19,04,19.60
2017,07,13,19,05,19.50
2017,07,13,19,06,19.50
2017,07,13,19,07,19.40
2017,07,13,19,08,19.40
2017,07,13,19,09,19.40
2017,07,13,19,10,19.40
2017,07,13,19,11,19.40
2017,07,13,19,12,19.40
2017,07,13,19,13,19.40
2017,07,13,19,14,19.30
2017,07,13,19,15,19.30
2017,07,13,19,16,19.30
2017,07,13,19,17,19.30
2017,07,13,19,18,19.30
2017,07,13,19,19,19.20
2017,07,13,19,20,19.20
2017,07,13,19,21,19.20
2017,07,13,19,22,19.20
2017,07,13,19,23,19.20
2017,07,13,19,24,19.10
2017,07,13,19,25,19.10
2017,07,13,19,26,19.10
2017,07,13,19,27,19.10
2017,07,13,19,28,19.10
2017,07,13,19,29,19.10
2017,07,13,19,30,19.10
2017,07,13,19,31,19.10
2017,07,13,19,32,19.00
2017,07,13,19,33,19.00
2017,07,13,19,34,19.00
2017,07,13,19,35,19.00
2017,07,13,19,36,19.00
2017,07,13,19,37,19.00
2017,07,13,19,38,19.00
2017,07,13,19,39,19.00
2017,07,13,19,40,18.90
2017,07,13,19,41,18.90
2017,07,13,19,42,18.90
2017,07,13,19,43,18.80
2017,07,13,19,44,18.80
2017,07,13,19,45,18.80
2017,07,13,19,46,18.80
2017,07,13,19,47,18.80
2017,07,13,19,48,18.80
2017,07,13,19,49,18.70
2017,07,13,19,50,18.70
2017,07,13,19,51,18.70
2017,07,13,19,52,18.70
2017,07,13,19,53,18.70
2017,07,13,19,54,18.70
2017,07,13,19,55,18.70
2017,07,13,19,56,18.60
2017,07,13,19,57,18.60
2017,07,13,19,58,18.60
2017,07,13,19,59,18.60
2017,07,13,20,00,18.50
2017,07,13,20,01,18.50
2017,07,13,20,02,18.50
2017,07,13,20,03,18.40
2017,07,13,20,04,18.40
2017,07,13,20,05,18.40
2017,07,13,20,06,18.40
2017,07,13,20,07,18.30
2017,07,13,20,08,18.30
2017,07,13,20,09,18.30
2017,07,13,20,10,18.30
2017,07,13,20,11,18.30
2017,07,13,20,12,18.30
2017,07,13,20,13,18.30
2017,07,13,20,14,18.30
2017,07,13,20,15,18.30
2017,07,13,20,16,18.20
2017,07,13,20,17,18.20
2017,07,13,20,18,18.20
2017,07,13,20,19,18.10
2017,07,13,20,20,18.10
2017,07,13,20,21,18.10
2017,07,13,20,22,18.10
2017,07,13,20,23,18.00
2017,07,13,20,24,18.00
2017,07,13,20,25,18.00
2017,07,13,20,26,18.00
2017,07,13,20,27,18.00
2017,07,13,20,28,17.90
2017,07,13,20,29,17.90
2017,07,13,20,30,17.90
2017,07,13,20,31,17.90
2017,07,13,20,32,17.80
2017,07,13,20,33,17.80
2017,07,13,20,34,17.80
2017,07,13,20,35,17.70
2017,07,13,20,36,17.70
2017,07,13,20,37,17.70
2017,07,13,20,38,17.60
2017,07,13,20,39,17.60
2017,07,13,20,40,17.60
2017,07,13,20,41,17.60
2017,07,13,20,42,17.50
2017,07,13,20,43,17.50
2017,07,13,20,44,17.40
2017,07,13,20,45,17.40
2017,07,13,20,46,17.40
2017,07,13,20,47,17.30
2017,07,13,20,48,17.30
2017,07,13,20,49,17.30
2017,07,13,20,50,17.30
2017,07,13,20,51,17.20
2017,07,13,20,52,17.20
2017,07,13,20,53,17.20
2017,07,13,20,54,17.20
2017,07,13,20,55,17.20
2017,07,13,20,56,17.10
2017,07,13,20,57,17.10
2017,07,13,20,58,17.10
2017,07,13,20,59,17.10
2017,07,13,21,00,17.10
2017,07,13,21,01,17.10
2017,07,13,21,02,17.10
2017,07,13,21,03,17.10
2017,07,13,21,04,17.00
2017,07,13,21,05,17.00
2017,07,13,21,06,17.00
2017,07,13,21,07,17.00
2017,07,13,21,08,17.00
2017,07,13,21,09,17.00
2017,07,13,21,10,17.00
2017,07,13,21,11,16.90
2017,07,13,21,12,16.90
2017,07,13,21,13,16.90
2017,07,13,21,14,16.90
2017,07,13,21,15,16.90
2017,07,13,21,16,16.90
2017,07,13,21,17,16.90
2017,07,13,21,18,16.90
2017,07,13,21,19,16.90
2017,07,13,21,20,16.80
2017,07,13,21,21,16.80
2017,07,13,21,22,16.80
2017,07,13,21,23,16.80
2017,07,13,21,24,16.80
2017,07,13,21,25,16.80
2017,07,13,21,26,16.80
2017,07,13,21,27,16.80
2017,07,13,21,28,16.80
2017,07,13,21,29,16.80
2017,07,13,21,30,16.80
2017,07,13,21,31,16.80
2017,07,13,21,32,16.80
2017,07,13,21,33,16.70
2017,07,13,21,34,16.70
2017,07,13,21,35,16.70
2017,07,13,21,36,16.70
2017,07,13,21,37,16.70
2017,07,13,21,38,16.70
2017,07,13,21,39,16.70
2017,07,13,21,40,16.70
2017,07,13,21,41,16.70
2017,07,13,21,42,16.70
2017,07,13,21,43,16.60
2017,07,13,21,44,16.60
2017,07,13,21,45,16.60
2017,07,13,21,46,16.60
2017,07,13,21,47,16.60
2017,07,13,21,48,16.60
2017,07,13,21,49,16.60
2017,07,13,21,50,16.60
2017,07,13,21,51,16.60
2017,07,13,21,52,16.60
2017,07,13,21,53,16.60
2017,07,13,21,54,16.60
2017,07,13,21,55,16.60
2017,07,13,21,56,16.50
2017,07,13,21,57,16.50
2017,07,13,21,58,16.50
2017,07,13,21,59,16.50
2017,07,13,22,00,16.50
2017,07,13,22,01,16.50
2017,07,13,22,02,16.50
2017,07,13,22,03,16.50
2017,07,13,22,04,16.50
2017,07,13,22,05,16.40
2017,07,13,22,06,16.40
2017,07,13,22,07,16.40
2017,07,13,22,08,16.40
2017,07,13,22,09,16.40
2017,07,13,22,10,16.30
2017,07,13,22,11,16.30
2017,07,13,22,12,16.30
2017,07,13,22,13,16.30
2017,07,13,22,14,16.30
2017,07,13,22,15,16.30
2017,07,13,22,16,16.30
2017,07,13,22,17,16.20
2017,07,13,22,18,16.20
2017,07,13,22,19,16.20
2017,07,13,22,20,16.30
2017,07,13,22,21,16.30
2017,07,13,22,22,16.30
2017,07,13,22,23,16.30
2017,07,13,22,24,16.30
2017,07,13,22,25,16.30
2017,07,13,22,26,16.30
2017,07,13,22,27,16.20
2017,07,13,22,28,16.20
2017,07,13,22,29,16.20
2017,07,13,22,30,16.20
2017,07,13,22,31,16.20
2017,07,13,22,32,16.20
2017,07,13,22,33,16.20
2017,07,13,22,34,16.20
2017,07,13,22,35,16.10
2017,07,13,22,36,16.10
2017,07,13,22,37,16.10
2017,07,13,22,38,16.10
2017,07,13,22,39,16.10
2017,07,13,22,40,16.00
2017,07,13,22,41,16.00
2017,07,13,22,42,15.90
2017,07,13,22,43,15.90
2017,07,13,22,44,15.90
2017,07,13,22,45,15.90
2017,07,13,22,46,15.80
2017,07,13,22,47,15.80
2017,07,13,22,48,15.80
2017,07,13,22,49,15.80
2017,07,13,22,50,15.80
2017,07,13,22,51,15.80
2017,07,13,22,52,15.80
2017,07,13,22,53,15.70
2017,07,13,22,54,15.70
2017,07,13,22,55,15.70
2017,07,13,22,56,15.70
2017,07,13,22,57,15.70
2017,07,13,22,58,15.70
2017,07,13,22,59,15.70
2017,07,13,23,00,15.70
2017,07,13,23,01,15.60
2017,07,13,23,02,15.60
2017,07,13,23,03,15.60
2017,07,13,23,04,15.60
2017,07,13,23,05,15.60
2017,07,13,23,06,15.60
2017,07,13,23,07,15.60
2017,07,13,23,08,15.60
2017,07,13,23,09,15.50
2017,07,13,23,10,15.50
2017,07,13,23,11,15.50
2017,07,13,23,12,15.50
2017,07,13,23,13,15.50
2017,07,13,23,14,15.50
2017,07,13,23,15,15.50
2017,07,13,23,16,15.40
2017,07,13,23,17,15.40
2017,07,13,23,18,15.40
2017,07,13,23,19,15.40
2017,07,13,23,20,15.40
2017,07,13,23,21,15.40
2017,07,13,23,22,15.40
2017,07,13,23,23,15.50
2017,07,13,23,24,15.50
2017,07,13,23,25,15.50
2017,07,13,23,26,15.50
2017,07,13,23,27,15.50
2017,07,13,23,28,15.50
2017,07,13,23,29,15.40
2017,07,13,23,30,15.40
2017,07,13,23,31,15.40
2017,07,13,23,32,15.40
2017,07,13,23,33,15.40
2017,07,13,23,34,15.40
2017,07,13,23,35,15.40
2017,07,13,23,36,15.40
2017,07,13,23,37,15.40
2017,07,13,23,38,15.40
2017,07,13,23,39,15.40
2017,07,13,23,40,15.40
2017,07,13,23,41,15.40
2017,07,13,23,42,15.30
2017,07,13,23,43,15.30
2017,07,13,23,44,15.30
2017,07,13,23,45,15.30
2017,07,13,23,46,15.30
2017,07,13,23,47,15.30
2017,07,13,23,48,15.30
2017,07,13,23,49,15.30
2017,07,13,23,50,15.30
2017,07,13,23,51,15.30
2017,07,13,23,52,15.30
2017,07,13,23,53,15.30
2017,07,13,23,54,15.30
2017,07,13,23,55,15.20
2017,07,13,23,56,15.20
2017,07,13,23,57,15.20
2017,07,13,23,58,15.20
2017,07,13,23,59,15.20
